Weather History for South Hill, VA

Change the Weather History Date:

Friday, January 6, 2012

  Actual Average (KEMV) Record (KEMV)
Temperature  
Mean Temperature 48 °F -  
Max Temperature 66 °F 52 °F 71 °F (1993)
Min Temperature 30 °F 29 °F 14 °F (1989)
Degree Days  
Heating Degree Days 17    
Moisture  
Dew Point 24 °F    
Average Humidity 46    
Maximum Humidity 75    
Minimum Humidity 17    
Precipitation  
Precipitation 0.00 in - - ()
Sea Level Pressure  
Sea Level Pressure 30.04 in    
Wind  
Wind Speed 5 mph (SSW)    
Max Wind Speed 13 mph    
Max Gust Speed 16 mph    
Visibility 10 miles    
Events      
Averages and records for this station are not official NWS values.
T = Trace of Precipitation, MM = Missing Value Source: NWS Daily Summary

Daily Weather History Graph

Daily Weather History Graph

Search for Another Location

Airport:

Trip Planner

Search our weather history database for the weather conditions in past years. The results will help you decide how hot, cold, wet, or windy it might be!

Date:

Astronomy

Jan. 06, 2012 Rise Set
Actual Time 7:25 AM EST 5:10 PM EST
Civil Twilight 6:56 AM EST 5:39 PM EST
Nautical Twilight 6:24 AM EST 6:11 PM EST
Astronomical Twilight 5:52 AM EST 6:43 PM EST
Moon 3:00 PM EST (1/6) 5:02 AM EST (1/6)
Length of Visible Light 10h 43m
Length of Day
9h 45m
Waxing Gibbous, 93% of the Moon is Illuminated
Jan 6
Waxing Gibbous
Jan 9
Full
Jan 16
Last Quarter
Jan 23
New
Jan 30
First Quarter

Hourly Weather History & Observations

Time (EST) Temp. Windchill Dew Point Humidity Pressure Visibility Wind Dir Wind Speed Gust Speed Precip Events Conditions
12:15 AM 35.6 °F - 21.2 °F 56% 30.08 in 10.0 mi Calm Calm - N/A   Clear
12:35 AM 33.8 °F 29.6 °F 23.0 °F 65% 30.07 in 10.0 mi SSW 4.6 mph - N/A   Clear
12:55 AM 32.0 °F 27.5 °F 23.0 °F 69% 30.08 in 10.0 mi SSW 4.6 mph - N/A   Clear
1:15 AM 33.8 °F 30.8 °F 23.0 °F 65% 30.08 in 10.0 mi SSW 3.5 mph - N/A   Clear
1:35 AM 33.8 °F 29.6 °F 23.0 °F 65% 30.08 in 10.0 mi SSW 4.6 mph - N/A   Clear
1:55 AM 33.8 °F 29.6 °F 23.0 °F 65% 30.08 in 10.0 mi SSW 4.6 mph - N/A   Clear
2:15 AM 35.6 °F 31.7 °F 23.0 °F 60% 30.08 in 10.0 mi SSW 4.6 mph - N/A   Clear
2:35 AM 33.8 °F 30.8 °F 23.0 °F 65% 30.08 in 10.0 mi SSW 3.5 mph - N/A   Clear
2:55 AM 33.8 °F 28.6 °F 23.0 °F 65% 30.08 in 10.0 mi SSW 5.8 mph - N/A   Clear
3:15 AM 35.6 °F 30.7 °F 23.0 °F 60% 30.07 in 10.0 mi SSW 5.8 mph - N/A   Clear
3:35 AM 35.6 °F 32.8 °F 23.0 °F 60% 30.07 in 10.0 mi SSW 3.5 mph - N/A   Clear
3:55 AM 35.6 °F 32.8 °F 23.0 °F 60% 30.07 in 10.0 mi SSW 3.5 mph - N/A   Clear
4:15 AM 35.6 °F 32.8 °F 23.0 °F 60% 30.07 in 10.0 mi SSW 3.5 mph - N/A   Clear
4:35 AM 35.6 °F 32.8 °F 23.0 °F 60% 30.07 in 10.0 mi South 3.5 mph - N/A   Clear
4:55 AM 32.0 °F 28.7 °F 24.8 °F 75% 30.07 in 10.0 mi SSW 3.5 mph - N/A   Clear
5:15 AM 33.8 °F 30.8 °F 24.8 °F 70% 30.07 in 10.0 mi SSW 3.5 mph - N/A   Clear
5:35 AM 30.2 °F 24.3 °F 23.0 °F 75% 30.08 in 10.0 mi SSW 5.8 mph - N/A   Clear
5:55 AM 32.0 °F 27.5 °F 24.8 °F 75% 30.08 in 10.0 mi SSW 4.6 mph - N/A   Clear
6:15 AM 33.8 °F 30.8 °F 24.8 °F 70% 30.08 in 10.0 mi SSW 3.5 mph - N/A   Clear
6:35 AM 33.8 °F 30.8 °F 23.0 °F 65% 30.08 in 10.0 mi South 3.5 mph - N/A   Clear
6:55 AM 33.8 °F 29.6 °F 23.0 °F 65% 30.08 in 10.0 mi SSW 4.6 mph - N/A   Clear
7:15 AM 30.2 °F 25.4 °F 23.0 °F 75% 30.09 in 10.0 mi SSW 4.6 mph - N/A   Clear
7:35 AM 33.8 °F 30.8 °F 24.8 °F 70% 30.09 in 10.0 mi SSW 3.5 mph - N/A   Clear
7:55 AM 33.8 °F 30.8 °F 24.8 °F 70% 30.09 in 10.0 mi SSW 3.5 mph - N/A   Clear
8:15 AM 35.6 °F - 24.8 °F 65% 30.09 in 10.0 mi Calm Calm - N/A   Clear
8:35 AM 35.6 °F 30.7 °F 26.6 °F 70% 30.09 in 10.0 mi SSW 5.8 mph - N/A   Clear
8:55 AM 41.0 °F 37.1 °F 26.6 °F 57% 30.10 in 10.0 mi SSW 5.8 mph - N/A   Clear
9:15 AM 44.6 °F 42.2 °F 26.6 °F 49% 30.10 in 10.0 mi South 4.6 mph - N/A   Clear
9:35 AM 46.4 °F 44.3 °F 26.6 °F 46% 30.10 in 10.0 mi SSW 4.6 mph - N/A   Clear
9:55 AM 50.0 °F - 26.6 °F 40% 30.10 in 10.0 mi SSW 3.5 mph - N/A   Clear
10:15 AM 51.8 °F - 24.8 °F 35% 30.10 in 10.0 mi SW 8.1 mph - N/A   Clear
10:35 AM 53.6 °F - 24.8 °F 33% 30.10 in 10.0 mi SW 8.1 mph - N/A   Clear
10:55 AM 55.4 °F - 24.8 °F 31% 30.09 in 10.0 mi SW 8.1 mph - N/A   Clear
11:15 AM 57.2 °F - 24.8 °F 29% 30.08 in 10.0 mi SW 5.8 mph - N/A   Clear
11:35 AM 60.8 °F - 24.8 °F 25% 30.07 in 10.0 mi SW 8.1 mph - N/A   Clear
11:55 AM 60.8 °F - 24.8 °F 25% 30.05 in 10.0 mi SSW 6.9 mph - N/A   Clear
12:15 PM 62.6 °F - 24.8 °F 24% 30.04 in 10.0 mi SW 6.9 mph - N/A   Clear
12:55 PM 64.4 °F - 21.2 °F 19% 30.03 in 10.0 mi SW 11.5 mph - N/A   Clear
1:15 PM 64.4 °F - 21.2 °F 19% 30.02 in 10.0 mi SW 9.2 mph - N/A   Clear
1:35 PM 66.2 °F - 21.2 °F 18% 30.01 in 10.0 mi SW 10.4 mph - N/A   Clear
1:55 PM 66.2 °F - 21.2 °F 18% 30.00 in 10.0 mi SW 6.9 mph - N/A   Clear
2:15 PM 66.2 °F - 21.2 °F 18% 29.99 in 10.0 mi South 10.4 mph - N/A   Clear
2:35 PM 66.2 °F - 21.2 °F 18% 29.99 in 10.0 mi SSW 9.2 mph - N/A   Clear
2:55 PM 66.2 °F - 21.2 °F 18% 29.98 in 10.0 mi SSW 11.5 mph - N/A   Clear
3:15 PM 66.2 °F - 21.2 °F 18% 29.98 in 10.0 mi SSW 8.1 mph - N/A   Clear
3:35 PM 66.2 °F - 19.4 °F 17% 29.98 in 10.0 mi SSW 11.5 mph - N/A   Clear
3:55 PM 66.2 °F - 19.4 °F 17% 29.98 in 10.0 mi SW 12.7 mph 16.1 mph N/A   Clear
4:15 PM 64.4 °F - 21.2 °F 19% 29.98 in 10.0 mi SSW 9.2 mph - N/A   Clear
4:35 PM 62.6 °F - 24.8 °F 24% 29.99 in 10.0 mi SSW 8.1 mph - N/A   Clear
4:55 PM 60.8 °F - 24.8 °F 25% 29.99 in 10.0 mi South 9.2 mph - N/A   Clear
5:15 PM 57.2 °F - 24.8 °F 29% 30.00 in 10.0 mi South 6.9 mph - N/A   Clear
5:35 PM 55.4 °F - 24.8 °F 31% 30.00 in 10.0 mi SSW 5.8 mph - N/A   Clear
5:55 PM 53.6 °F - 24.8 °F 33% 30.00 in 10.0 mi South 5.8 mph - N/A   Clear
6:15 PM 51.8 °F - 26.6 °F 38% 30.00 in 10.0 mi SSW 6.9 mph - N/A   Clear
6:35 PM 50.0 °F - 26.6 °F 40% 30.00 in 10.0 mi SSW 8.1 mph - N/A   Clear
6:55 PM 48.2 °F - 26.6 °F 43% 30.00 in 10.0 mi SSW 8.1 mph - N/A   Clear
7:15 PM 50.0 °F - 26.6 °F 40% 30.00 in 10.0 mi SSW 6.9 mph - N/A   Clear
7:35 PM 48.2 °F - 26.6 °F 43% 30.00 in 10.0 mi South 8.1 mph - N/A   Clear
7:55 PM 48.2 °F - 26.6 °F 43% 30.00 in 10.0 mi SSW 5.8 mph - N/A   Clear
8:15 PM 48.2 °F - 26.6 °F 43% 30.00 in 10.0 mi South 5.8 mph - N/A   Clear
8:35 PM 48.2 °F - 26.6 °F 43% 30.00 in 10.0 mi SSW 8.1 mph - N/A   Clear
8:55 PM 48.2 °F - 26.6 °F 43% 30.00 in 10.0 mi SSW 6.9 mph - N/A   Clear
9:15 PM 48.2 °F - 26.6 °F 43% 29.99 in 10.0 mi SSW 8.1 mph - N/A   Clear
9:35 PM 48.2 °F - 26.6 °F 43% 29.99 in 10.0 mi SSW 6.9 mph - N/A   Clear
9:55 PM 48.2 °F - 26.6 °F 43% 29.99 in 10.0 mi SSW 6.9 mph - N/A   Clear
10:15 PM 48.2 °F - 26.6 °F 43% 29.99 in 10.0 mi SSW 6.9 mph - N/A   Clear
10:35 PM 48.2 °F - 26.6 °F 43% 29.98 in 10.0 mi SSW 4.6 mph - N/A   Clear
10:55 PM 46.4 °F 44.3 °F 26.6 °F 46% 29.98 in 10.0 mi SSW 4.6 mph - N/A   Clear
11:15 PM 46.4 °F 43.5 °F 26.6 °F 46% 29.98 in 10.0 mi SSW 5.8 mph - N/A   Clear
11:35 PM 46.4 °F 44.3 °F 26.6 °F 46% 29.98 in 10.0 mi SSW 4.6 mph - N/A   Clear
11:55 PM 46.4 °F 44.3 °F 26.6 °F 46% 29.97 in 10.0 mi SSW 4.6 mph - N/A   Clear